Total_Precipitation_Accumulation
0.12 0.31 0.34 0.26 0.50 1.06 0.54 0.43 0.37 0.27 0.28 0.23 0.16 0.13 0.15 0.24 0.39 0.31 0.22 0.16 0.26 0.23 0.07 0.05 0.04 0.04 0.05 0.05 0.05 0.09 0.20 0.13 0.10 0.18 0.17 0.11 0.05 0.05 0.04 0.06 0.10 0.10 0.20 0.16 0.23 0.27 0.12 0.01 0.03 0.08 0.11 0.08 0.00 0.00
0.12 0.20 0.44 0.25 0.45 0.87 0.51 0.42 0.41 0.26 0.25 0.22 0.18 0.15 0.18 0.26 0.34 0.44 0.54 0.29 0.39 0.40 0.13 0.02 0.01 0.01 0.01 0.03 0.11 0.16 0.15 0.12 0.07 0.06 0.07 0.13 0.14 0.14 0.12 0.10 0.06 0.10 0.05 0.08 0.09 0.12 0.11 0.08 0.04 0.02 0.01 0.00 0.00 0.00
0.10 0.17 0.57 0.30 0.47 0.77 0.48 0.42 0.38 0.25 0.25 0.25 0.19 0.17 0.25 0.26 0.33 0.53 0.62 0.50 0.58 0.48 0.20 0.03 0.04 0.02 0.00 0.01 0.05 0.18 0.09 0.04 0.06 0.12 0.20 0.24 0.22 0.14 0.13 0.08 0.14 0.09 0.05 0.06 0.08 0.04 0.04 0.08 0.05 0.01 0.00 0.00 0.00 0.00
0.11 0.24 0.76 0.41 0.57 0.65 0.47 0.47 0.41 0.20 0.16 0.26 0.19 0.16 0.22 0.20 0.43 0.66 0.66 0.52 0.52 0.41 0.42 0.22 0.02 0.02 0.01 0.02 0.04 0.06 0.12 0.12 0.10 0.14 0.23 0.18 0.15 0.13 0.10 0.09 0.10 0.11 0.19 0.27 0.16 0.05 0.03 0.02 0.02 0.01 0.00 0.00 0.00 0.00
0.12 0.31 0.78 0.57 0.60 0.50 0.42 0.46 0.42 0.22 0.12 0.20 0.17 0.14 0.18 0.27 0.65 0.80 0.64 0.40 0.30 0.25 0.30 0.17 0.08 0.04 0.00 0.01 0.03 0.07 0.19 0.28 0.35 0.38 0.33 0.13 0.05 0.14 0.08 0.05 0.02 0.01 0.04 0.09 0.07 0.10 0.04 0.01 0.01 0.00 0.00 0.00 0.00 0.00
0.17 0.41 0.74 0.68 0.54 0.38 0.38 0.47 0.41 0.20 0.11 0.20 0.19 0.16 0.19 0.39 0.65 0.81 0.81 0.30 0.24 0.25 0.27 0.17 0.15 0.11 0.05 0.04 0.06 0.11 0.18 0.30 0.41 0.40 0.28 0.15 0.04 0.11 0.19 0.04 0.00 0.00 0.01 0.01 0.03 0.02 0.03 0.06 0.07 0.03 0.00 0.00 0.00 0.00
0.35 0.52 0.78 0.59 0.39 0.33 0.43 0.45 0.33 0.18 0.18 0.24 0.21 0.16 0.19 0.34 0.59 0.50 0.39 0.16 0.17 0.26 0.34 0.12 0.14 0.19 0.06 0.15 0.19 0.18 0.22 0.27 0.26 0.28 0.24 0.11 0.07 0.18 0.28 0.05 0.02 0.00 0.01 0.01 0.05 0.04 0.01 0.00 0.00 0.00 0.00 0.00 0.00 0.00
0.50 0.62 0.71 0.45 0.34 0.41 0.48 0.37 0.26 0.22 0.24 0.19 0.14 0.13 0.23 0.47 0.58 0.31 0.08 0.16 0.34 0.41 0.16 0.13 0.14 0.22 0.10 0.16 0.16 0.12 0.16 0.18 0.27 0.29 0.19 0.07 0.07 0.13 0.14 0.03 0.01 0.00 0.00 0.00 0.00 0.00 0.00 0.00 0.00 0.00 0.00 0.00 0.00 0.00
0.73 0.81 0.51 0.35 0.37 0.39 0.39 0.31 0.23 0.22 0.19 0.16 0.16 0.30 0.72 0.76 0.54 0.30 0.21 0.27 0.46 0.58 0.34 0.08 0.09 0.15 0.10 0.18 0.13 0.16 0.15 0.22 0.20 0.17 0.08 0.06 0.12 0.12 0.03 0.01 0.00 0.00 0.00 0.00 0.00 0.00 0.00 0.00 0.00 0.00 0.00 0.00 0.00 0.00
0.74 0.50 0.36 0.32 0.32 0.33 0.29 0.18 0.15 0.13 0.11 0.11 0.15 0.37 0.76 0.46 0.38 0.35 0.47 0.65 0.62 0.48 0.17 0.06 0.06 0.12 0.14 0.18 0.19 0.20 0.20 0.17 0.11 0.06 0.06 0.10 0.04 0.02 0.01 0.00 0.00 0.00 0.00 0.00 0.00 0.00 0.00 0.00 0.00 0.00 0.00 0.00 0.00 0.00
0.43 0.31 0.24 0.24 0.19 0.13 0.08 0.06 0.05 0.07 0.05 0.02 0.07 0.32 0.52 0.53 0.31 0.28 0.32 0.35 0.28 0.17 0.04 0.02 0.05 0.09 0.11 0.23 0.24 0.21 0.19 0.18 0.10 0.08 0.04 0.06 0.02 0.00 0.00 0.00 0.00 0.00 0.00 0.00 0.00 0.00 0.00 0.00 0.00 0.00 0.00 0.00 0.00 0.00
0.21 0.13 0.12 0.06 0.04 0.03 0.02 0.01 0.05 0.03 0.02 0.03 0.09 0.29 0.39 0.29 0.23 0.20 0.18 0.10 0.09 0.05 0.02 0.03 0.05 0.10 0.13 0.12 0.26 0.24 0.23 0.11 0.10 0.06 0.03 0.02 0.01 0.00 0.00 0.00 0.00 0.00 0.00 0.00 0.00 0.00 0.00 0.00 0.00 0.00 0.00 0.00 0.00 0.00
0.13 0.07 0.01 0.00 0.00 0.00 0.00 0.01 0.01 0.02 0.05 0.10 0.20 0.28 0.28 0.22 0.20 0.09 0.09 0.03 0.08 0.06 0.04 0.03 0.09 0.09 0.08 0.07 0.10 0.09 0.08 0.03 0.01 0.01 0.00 0.01 0.00 0.00 0.00 0.00 0.00 0.00 0.00 0.00 0.00 0.00 0.00 0.00 0.00 0.00 0.00 0.00 0.00 0.00
0.04 0.01 0.00 0.00 0.00 0.01 0.01 0.02 0.01 0.01 0.05 0.12 0.19 0.17 0.20 0.15 0.06 0.03 0.07 0.07 0.04 0.03 0.04 0.07 0.08 0.06 0.06 0.07 0.04 0.06 0.03 0.01 0.01 0.00 0.02 0.02 0.00 0.00 0.00 0.00 0.00 0.00 0.00 0.00 0.00 0.00 0.00 0.00 0.00 0.00 0.00 0.00 0.00 0.00
0.04 0.02 0.01 0.01 0.01 0.02 0.01 0.00 0.00 0.01 0.02 0.04 0.07 0.13 0.04 0.06 0.04 0.02 0.01 0.02 0.07 0.10 0.05 0.16 0.16 0.11 0.09 0.05 0.05 0.03 0.01 0.00 0.00 0.01 0.03 0.01 0.01 0.00 0.00 0.00 0.00 0.00 0.00 0.00 0.00 0.00 0.00 0.00 0.00 0.00 0.00 0.00 0.00 0.00
0.01 0.02 0.03 0.02 0.02 0.01 0.00 0.01 0.01 0.02 0.01 0.01 0.03 0.06 0.04 0.08 0.07 0.04 0.05 0.03 0.06 0.16 0.08 0.08 0.10 0.05 0.02 0.03 0.02 0.01 0.00 0.01 0.02 0.02 0.02 0.02 0.02 0.00 0.01 0.01 0.00 0.00 0.00 0.00 0.00 0.00 0.00 0.00 0.00 0.00 0.00 0.00 0.00 0.00
0.01 0.02 0.01 0.00 0.00 0.00 0.00 0.01 0.03 0.02 0.01 0.02 0.07 0.05 0.04 0.13 0.13 0.09 0.11 0.08 0.10 0.22 0.12 0.04 0.04 0.02 0.01 0.01 0.01 0.02 0.04 0.05 0.04 0.03 0.03 0.03 0.04 0.02 0.03 0.01 0.00 0.00 0.00 0.00 0.00 0.00 0.00 0.00 0.00 0.00 0.00 0.00 0.00 0.00
0.01 0.00 0.00 0.00 0.00 0.00 0.00 0.00 0.01 0.00 0.02 0.05 0.10 0.06 0.02 0.05 0.08 0.11 0.09 0.06 0.11 0.18 0.11 0.12 0.02 0.02 0.03 0.05 0.07 0.10 0.06 0.05 0.03 0.01 0.01 0.03 0.04 0.04 0.05 0.04 0.01 0.00 0.00 0.00 0.00 0.00 0.00 0.00 0.00 0.00 0.00 0.00 0.00 0.00
0.01 0.00 0.00 0.00 0.00 0.01 0.02 0.00 0.01 0.01 0.03 0.03 0.03 0.02 0.03 0.04 0.06 0.12 0.07 0.02 0.06 0.10 0.02 0.00 0.02 0.03 0.05 0.09 0.13 0.12 0.07 0.04 0.02 0.01 0.01 0.02 0.03 0.03 0.05 0.06 0.04 0.02 0.01 0.00 0.00 0.00 0.00 0.00 0.00 0.00 0.00 0.00 0.00 0.00
0.00 0.00 0.00 0.00 0.00 0.00 0.00 0.00 0.00 0.01 0.01 0.01 0.02 0.01 0.02 0.04 0.03 0.05 0.04 0.01 0.01 0.01 0.01 0.03 0.08 0.15 0.16 0.14 0.14 0.11 0.08 0.06 0.05 0.04 0.02 0.02 0.02 0.02 0.01 0.01 0.01 0.01 0.00 0.00 0.00 0.00 0.01 0.00 0.00 0.00 0.00 0.00 0.01 0.01
0.00 0.00 0.00 0.00 0.00 0.00 0.00 0.00 0.01 0.00 0.00 0.01 0.01 0.01 0.01 0.00 0.01 0.01 0.01 0.00 0.04 0.11 0.08 0.09 0.13 0.17 0.21 0.16 0.11 0.09 0.08 0.05 0.03 0.03 0.03 0.03 0.02 0.01 0.00 0.00 0.00 0.00 0.01 0.00 0.01 0.00 0.00 0.00 0.00 0.00 0.00 0.00 0.00 0.00
0.00 0.00 0.00 0.00 0.00 0.00 0.00 0.00 0.00 0.00 0.01 0.01 0.01 0.01 0.03 0.02 0.00 0.00 0.00 0.00 0.03 0.08 0.09 0.07 0.07 0.06 0.05 0.05 0.05 0.03 0.02 0.02 0.02 0.02 0.02 0.02 0.02 0.02 0.02 0.01 0.01 0.01 0.00 0.00 0.00 0.00 0.00 0.00 0.00 0.00 0.00 0.00 0.00 0.00
0.00 0.00 0.00 0.00 0.00 0.00 0.00 0.00 0.00 0.01 0.00 0.01 0.01 0.01 0.01 0.00 0.00 0.00 0.00 0.01 0.04 0.07 0.06 0.03 0.04 0.03 0.02 0.01 0.00 0.00 0.00 0.00 0.00 0.00 0.01 0.01 0.01 0.01 0.02 0.01 0.01 0.02 0.02 0.02 0.02 0.03 0.02 0.01 0.00 0.00 0.00 0.00 0.00 0.00
0.00 0.00 0.00 0.00 0.00 0.00 0.00 0.00 0.00 0.00 0.00 0.00 0.00 0.00 0.00 0.00 0.00 0.00 0.01 0.03 0.06 0.03 0.01 0.01 0.01 0.01 0.00 0.00 0.01 0.00 0.00 0.00 0.00 0.00 0.02 0.02 0.02 0.02 0.02 0.02 0.03 0.04 0.05 0.05 0.04 0.06 0.04 0.04 0.04 0.03 0.02 0.02 0.02 0.02
0.00 0.00 0.00 0.00 0.00 0.00 0.00 0.00 0.00 0.00 0.00 0.00 0.00 0.00 0.00 0.00 0.00 0.00 0.01 0.04 0.05 0.04 0.01 0.00 0.00 0.00 0.01 0.01 0.01 0.01 0.00 0.00 0.01 0.01 0.02 0.02 0.02 0.06 0.06 0.06 0.06 0.06 0.05 0.05 0.05 0.05 0.05 0.04 0.04 0.03 0.03 0.03 0.03 0.03
0.00 0.00 0.00 0.00 0.00 0.00 0.00 0.00 0.00 0.00 0.00 0.00 0.00 0.00 0.00 0.00 0.00 0.01 0.04 0.07 0.06 0.04 0.04 0.04 0.02 0.01 0.00 0.01 0.02 0.01 0.00 0.00 0.01 0.04 0.04 0.02 0.01 0.03 0.05 0.07 0.09 0.06 0.03 0.05 0.05 0.04 0.04 0.03 0.02 0.02 0.03 0.05 0.06 0.05
0.00 0.00 0.00 0.00 0.00 0.00 0.00 0.01 0.00 0.00 0.00 0.00 0.01 0.00 0.00 0.00 0.01 0.03 0.04 0.05 0.06 0.04 0.03 0.04 0.02 0.02 0.01 0.02 0.01 0.01 0.01 0.01 0.02 0.06 0.07 0.04 0.02 0.02 0.02 0.04 0.05 0.05 0.03 0.03 0.03 0.03 0.03 0.03 0.03 0.04 0.04 0.09 0.06 0.05
0.00 0.00 0.00 0.00 0.00 0.00 0.00 0.00 0.00 0.01 0.01 0.01 0.01 0.01 0.01 0.01 0.04 0.04 0.05 0.04 0.05 0.06 0.04 0.03 0.02 0.02 0.03 0.03 0.02 0.01 0.02 0.04 0.06 0.08 0.06 0.05 0.02 0.01 0.01 0.02 0.02 0.01 0.01 0.01 0.01 0.01 0.02 0.02 0.04 0.06 0.09 0.05 0.04 0.07
0.00 0.01 0.00 0.00 0.00 0.00 0.00 0.01 0.03 0.04 0.04 0.06 0.07 0.06 0.04 0.03 0.06 0.06 0.05 0.05 0.04 0.04 0.05 0.05 0.04 0.04 0.04 0.03 0.01 0.01 0.02 0.04 0.10 0.10 0.09 0.15 0.11 0.05 0.01 0.01 0.01 0.01 0.01 0.01 0.01 0.00 0.02 0.03 0.04 0.05 0.06 0.05 0.07 0.10
0.00 0.00 0.00 0.01 0.00 0.01 0.05 0.04 0.06 0.03 0.01 0.03 0.03 0.02 0.02 0.04 0.07 0.07 0.06 0.07 0.07 0.09 0.09 0.07 0.06 0.07 0.06 0.05 0.03 0.03 0.02 0.03 0.05 0.06 0.07 0.07 0.07 0.06 0.03 0.01 0.01 0.01 0.01 0.01 0.01 0.01 0.02 0.04 0.07 0.04 0.06 0.09 0.11 0.12
0.01 0.02 0.04 0.03 0.04 0.08 0.08 0.03 0.04 0.03 0.03 0.03 0.03 0.04 0.04 0.05 0.06 0.05 0.04 0.05 0.04 0.04 0.05 0.05 0.05 0.05 0.05 0.05 0.06 0.05 0.06 0.05 0.05 0.05 0.05 0.06 0.06 0.04 0.03 0.02 0.01 0.01 0.01 0.01 0.01 0.01 0.03 0.04 0.05 0.07 0.07 0.08 0.10 0.11
0.05 0.10 0.13 0.10 0.09 0.12 0.12 0.14 0.13 0.09 0.06 0.06 0.06 0.05 0.07 0.07 0.06 0.05 0.03 0.04 0.05 0.05 0.05 0.05 0.06 0.05 0.06 0.08 0.06 0.06 0.06 0.06 0.05 0.04 0.03 0.03 0.03 0.03 0.03 0.02 0.01 0.01 0.01 0.01 0.01 0.01 0.02 0.03 0.06 0.09 0.11 0.12 0.13 0.12
0.05 0.07 0.10 0.13 0.11 0.14 0.19 0.21 0.21 0.14 0.08 0.06 0.06 0.06 0.07 0.08 0.07 0.06 0.04 0.06 0.09 0.08 0.08 0.07 0.06 0.06 0.09 0.09 0.07 0.07 0.07 0.06 0.05 0.04 0.03 0.02 0.01 0.01 0.01 0.01 0.01 0.01 0.01 0.01 0.02 0.03 0.04 0.04 0.06 0.07 0.07 0.07 0.07 0.05